Weather History for KCPW - January, 2013

Change the Weather History Date:

Wednesday, January 16, 2013

  Actual Average (KALS) Record (KALS)
Temperature  
Mean Temperature 20 °F 16 °F  
Max Temperature 32 °F 34 °F 60 °F (2000)
Min Temperature 8 °F -2 °F -27 °F (1984)
Degree Days  
Heating Degree Days 45 49  
Month to date heating degree days 784  
Since 1 July heating degree days 4421  
Cooling Degree Days 0 0  
Month to date cooling degree days 0  
Year to date cooling degree days 0  
Moisture  
Dew Point 13 °F    
Average Humidity 68    
Maximum Humidity 92    
Minimum Humidity 59    
Precipitation  
Precipitation 0.17 in 0.00 in 0.26 in (1956)
Month to date precipitation 0.12  
Year to date precipitation 0.12  
Snow  
Snow 0.00 in 0.10 in 5.00 in (1987)
Month to date snowfall 1.8  
Since 1 July snowfall 12.1  
Snow Depth -    
Sea Level Pressure  
Sea Level Pressure 30.27 in    
Wind  
Wind Speed 17 mph (NNE)    
Max Wind Speed 31 mph    
Max Gust Speed 40 mph    
Visibility 10 miles    
Events      
T = Trace of Precipitation, MM = Missing Value Source: NWS Daily Summary

Daily Weather History Graph

Daily Weather History Graph

Search for Another Location

Airport or City:

Trip Planner

Search our weather history database for the weather conditions in past years. The results will help you decide how hot, cold, wet, or windy it might be!

Date:

Astronomy

Jan. 16, 2013 Rise Set
Actual Time 7:20 AM MST 5:14 PM MST
Civil Twilight 6:51 AM MST 5:42 PM MST
Nautical Twilight 6:19 AM MST 6:14 PM MST
Astronomical Twilight 5:48 AM MST 6:46 PM MST
Moon 10:05 AM MST (1/16) 11:00 PM MST (1/16)
Length of Visible Light 10h 51m
Length of Day
9h 54m
Waxing Crescent, 29% of the Moon is Illuminated
Jan 16
Waxing Crescent
Jan 18
First Quarter
Jan 26
Full
Feb 3
Last Quarter
Feb 10
New

Hourly Weather History & Observations

Time (MST) Temp. Windchill Dew Point Humidity Pressure Visibility Wind Dir Wind Speed Gust Speed Precip Events Conditions
12:08 AM 10.4 °F -11.7 °F 6.8 °F 85% 30.12 in 10.0 mi NE 29.9 mph - N/A   Clear
12:28 AM 10.4 °F -12.0 °F 8.6 °F 92% 30.13 in 10.0 mi NNE 31.1 mph 34.5 mph N/A   Clear
12:44 AM 10.4 °F -10.7 °F 6.8 °F 85% 30.14 in 10.0 mi NE 26.5 mph - N/A   Clear
1:07 AM 8.6 °F -13.4 °F 5.0 °F 85% 30.13 in 10.0 mi NNE 27.6 mph 35.7 mph N/A   Clear
1:24 AM 12.2 °F -8.6 °F 8.6 °F 85% 30.14 in 10.0 mi NNE 27.6 mph 34.5 mph N/A   Clear
1:47 AM 10.4 °F -10.3 °F 5.0 °F 79% 30.14 in 10.0 mi NE 25.3 mph 29.9 mph N/A   Clear
2:08 AM 10.4 °F -12.0 °F 8.6 °F 92% 30.15 in 10.0 mi NNE 31.1 mph 34.5 mph N/A   Clear
2:28 AM 10.4 °F -10.7 °F 6.8 °F 85% 30.17 in 10.0 mi NE 26.5 mph 33.4 mph N/A   Clear
2:48 AM 12.2 °F -8.6 °F 6.8 °F 79% 30.17 in 10.0 mi NE 27.6 mph - N/A   Clear
3:08 AM 12.2 °F -8.2 °F 6.8 °F 79% 30.17 in 10.0 mi NE 26.5 mph 33.4 mph N/A   Clear
3:28 AM 12.2 °F -7.5 °F 6.8 °F 79% 30.17 in 10.0 mi NE 24.2 mph - N/A   Clear
3:48 AM 14.0 °F -6.2 °F 8.6 °F 79% 30.17 in 10.0 mi NNE 27.6 mph 31.1 mph N/A   Clear
4:08 AM 17.6 °F -0.3 °F 8.6 °F 68% 30.17 in 10.0 mi NE 24.2 mph 40.3 mph N/A   Clear
4:28 AM 17.6 °F -1.6 °F 8.6 °F 68% 30.18 in 10.0 mi NNE 28.8 mph 33.4 mph N/A   Clear
5:08 AM 19.4 °F 0.8 °F 8.6 °F 63% 30.17 in 10.0 mi NNE 28.8 mph 33.4 mph N/A   Clear
5:28 AM 15.8 °F -2.3 °F 8.6 °F 73% 30.17 in 10.0 mi NE 23.0 mph 33.4 mph N/A   Clear
5:48 AM 15.8 °F -1.5 °F 8.6 °F 73% 30.19 in 10.0 mi NNE 20.7 mph 25.3 mph N/A   Clear
6:08 AM 19.4 °F 5.0 °F 10.4 °F 68% 30.19 in 10.0 mi NNE 16.1 mph 27.6 mph N/A   Clear
6:28 AM 21.2 °F 7.8 °F 10.4 °F 63% 30.20 in 10.0 mi NNE 15.0 mph 23.0 mph N/A   Clear
6:48 AM 21.2 °F 8.9 °F 10.4 °F 63% 30.22 in 10.0 mi NNE 12.7 mph 21.9 mph N/A   Clear
7:08 AM 21.2 °F 8.9 °F 10.4 °F 63% 30.23 in 10.0 mi North 12.7 mph 19.6 mph N/A   Clear
7:28 AM 21.2 °F 7.8 °F 10.4 °F 63% 30.23 in 10.0 mi NNE 15.0 mph 23.0 mph N/A   Clear
7:48 AM 21.2 °F 8.3 °F 10.4 °F 63% 30.24 in 10.0 mi NNE 13.8 mph 26.5 mph N/A   Clear
8:08 AM 21.2 °F 10.1 °F 10.4 °F 63% 30.24 in 10.0 mi NNE 10.4 mph 20.7 mph N/A   Clear
8:28 AM 21.2 °F - 10.4 °F 63% 30.25 in 10.0 mi Calm Calm - N/A   Clear
8:48 AM 21.2 °F - 10.4 °F 63% 30.26 in 10.0 mi Calm Calm - N/A   Clear
9:08 AM 23.0 °F - 12.2 °F 63% 30.27 in 10.0 mi Calm Calm - N/A   Clear
9:28 AM 23.0 °F - 12.2 °F 63% 30.29 in 10.0 mi Calm Calm - N/A   Clear
9:48 AM 24.8 °F - 12.2 °F 59% 30.29 in 10.0 mi Calm Calm - N/A   Clear
10:08 AM 26.6 °F 21.2 °F 14.0 °F 59% 30.29 in 10.0 mi NW 4.6 mph - N/A   Clear
10:28 AM 26.6 °F 20.0 °F 14.0 °F 59% 30.30 in 10.0 mi North 5.8 mph - N/A   Clear
10:48 AM 26.6 °F 22.6 °F 17.6 °F 69% 30.30 in 10.0 mi SW 3.5 mph - N/A   Clear
11:08 AM 28.4 °F 23.3 °F 17.6 °F 64% 30.30 in 10.0 mi NNW 4.6 mph - N/A   Clear
11:28 AM 28.4 °F 19.1 °F 15.8 °F 59% 30.29 in 10.0 mi North 10.4 mph - 0.01 in   Clear
11:48 AM 30.2 °F 23.4 °F 17.6 °F 60% 30.29 in 10.0 mi North 6.9 mph 16.1 mph 0.01 in   Clear
12:08 PM 30.2 °F 24.3 °F 17.6 °F 60% 30.28 in 10.0 mi NNE 5.8 mph - 0.01 in   Clear
12:28 PM 30.2 °F 25.4 °F 17.6 °F 60% 30.27 in 10.0 mi NNE 4.6 mph - 0.01 in   Clear
12:48 PM 30.2 °F 24.3 °F 17.6 °F 60% 30.27 in 10.0 mi NE 5.8 mph - 0.01 in   Clear
1:08 PM 30.2 °F 26.7 °F 17.6 °F 60% 30.27 in 10.0 mi East 3.5 mph - N/A   Clear
1:28 PM 30.2 °F 25.4 °F 17.6 °F 60% 30.27 in 10.0 mi NNE 4.6 mph - N/A   Clear
1:48 PM 32.0 °F 25.6 °F 19.4 °F 60% 30.27 in 10.0 mi North 6.9 mph - N/A   Clear
2:08 PM 30.2 °F 24.3 °F 19.4 °F 64% 30.27 in 10.0 mi North 5.8 mph - N/A   Clear
2:28 PM 32.0 °F - 21.2 °F 64% 30.27 in 10.0 mi Calm Calm - 0.04 in   Clear
2:48 PM 30.2 °F 26.7 °F 19.4 °F 64% 30.27 in 10.0 mi NNE 3.5 mph - 0.08 in   Clear
3:08 PM 30.2 °F 26.7 °F 19.4 °F 64% 30.27 in 10.0 mi NNE 3.5 mph - 0.02 in   Clear
3:28 PM 30.2 °F - 19.4 °F 64% 30.27 in 10.0 mi Calm Calm - 0.04 in   Clear
3:48 PM 30.2 °F 26.7 °F 19.4 °F 64% 30.29 in 10.0 mi SW 3.5 mph - 0.05 in   Clear
4:08 PM 30.2 °F - 19.4 °F 64% 30.29 in 10.0 mi Calm Calm - N/A   Clear
4:28 PM 30.2 °F 26.7 °F 19.4 °F 64% 30.29 in 10.0 mi SW 3.5 mph - 0.01 in   Clear
5:08 PM 28.4 °F - 19.4 °F 69% 30.31 in 10.0 mi Calm Calm - N/A   Clear
5:28 PM 26.6 °F - 19.4 °F 74% 30.32 in 10.0 mi Calm Calm - N/A   Clear
5:48 PM 26.6 °F - 19.4 °F 74% 30.32 in 10.0 mi North - - 0.01 in   Clear
6:08 PM 26.6 °F - 19.4 °F 74% 30.33 in 10.0 mi Calm Calm - N/A   Clear
6:28 PM 23.0 °F 17.0 °F 19.4 °F 86% 30.33 in 10.0 mi ENE 4.6 mph - N/A   Clear
6:48 PM 24.8 °F 19.1 °F 19.4 °F 80% 30.34 in 10.0 mi East 4.6 mph - N/A   Clear
7:08 PM 24.8 °F 19.1 °F 14.0 °F 64% 30.34 in 10.0 mi East 4.6 mph - N/A   Clear
7:28 PM 23.0 °F 15.8 °F 12.2 °F 63% 30.35 in 10.0 mi NE 5.8 mph - N/A   Clear
7:48 PM 23.0 °F 13.9 °F 12.2 °F 63% 30.35 in 10.0 mi NE 8.1 mph - N/A   Clear
8:08 PM 23.0 °F 14.7 °F 12.2 °F 63% 30.36 in 10.0 mi NE 6.9 mph - N/A   Clear
8:28 PM 23.0 °F 14.7 °F 12.2 °F 63% 30.37 in 10.0 mi NE 6.9 mph - N/A   Clear
8:48 PM 23.0 °F 15.8 °F 10.4 °F 59% 30.37 in 10.0 mi ENE 5.8 mph - N/A   Clear
9:08 PM 23.0 °F 13.9 °F 10.4 °F 59% 30.37 in 10.0 mi NE 8.1 mph - N/A   Clear
9:28 PM 23.0 °F 13.9 °F 10.4 °F 59% 30.37 in 10.0 mi NE 8.1 mph - N/A   Clear
9:48 PM 21.2 °F 13.6 °F 10.4 °F 63% 30.38 in 10.0 mi NE 5.8 mph - N/A   Clear
10:08 PM 21.2 °F 12.6 °F 10.4 °F 63% 30.38 in 10.0 mi ENE 6.9 mph - N/A   Clear
10:28 PM 21.2 °F 11.7 °F 10.4 °F 63% 30.38 in 10.0 mi NE 8.1 mph - N/A   Clear
10:46 PM 21.2 °F 10.9 °F 10.4 °F 63% 30.39 in 10.0 mi NE 9.2 mph - N/A   Clear
11:02 PM 21.2 °F 11.7 °F 10.4 °F 63% 30.39 in 10.0 mi NE 8.1 mph - N/A   Clear
11:27 PM 21.2 °F 12.6 °F 10.4 °F 63% 30.39 in 10.0 mi NE 6.9 mph - N/A   Clear
11:48 PM 21.2 °F 11.7 °F 10.4 °F 63% 30.39 in 10.0 mi NE 8.1 mph - N/A   Clear